Location: Spangle
(47.4302°N, 117.3779°W)
Time: 13:52:17
(UTC+00:00)

Envisat - Pass Details

Date: 19 April 2026
Orbit: 761 x 762 km, 98.4° (Epoch: 15 May)

Event Time Altitude Azimuth Distance (km) Brightness Sun altitude
Rises 12:06:14 0° 1° (N) 3,236 6.6 -8.2°
Reaches altitude 10° 12:09:12 10° 343° (NNW) 2,305 5.6 -7.7°
Maximum altitude 12:12:32 18° 302° (WNW) 1,809 4.6 -7.2°
Drops below altitude 10° 12:15:52 10° 260° (W) 2,295 4.8 -6.7°
Enters shadow 12:16:34 - 255° (WSW) 2,491 5.0 -6.6°
